Other Public Products
Issued by NWS Grand Forks, ND

Home | Current Version | Previous Version | Text Only | Print | Product List | Glossary Off
Versions: 1 2 3 4 5 6 7 8 9 10 11 12 13 14 15 16 17 18 19 20 21 22 23 24 25 26 27 28 29 30 31 32 33 34 35 36 37 38 39 40 41 42 43 44 45 46 47 48 49 50

000
FPUS83 KFGF 230331
OPUFGF
PRAIRIE TO PINES WEATHER ROUNDUP
NATIONAL WEATHER SERVICE EASTERN NORTH DAKOTA/GRAND FORKS ND
1000 PM CDT TUE JUL 22 2014

 **SATELLITE DATA USED TO AUGMENT SKY COVER AT AUTOMATED STATIONS**
 *****  WEATHER ACROSS EASTERN NORTH DAKOTA  *****

CITY           SKY/WX    TMP DP  RH WIND       PRES   REMARKS
GRAND FORKS    FAIR      65  61  87 CALM      30.22R
GRAND FORKS AF FAIR      65  62  89 N2        30.24R
GRAND CITY NWS   N/A     64 N/A N/A N2          N/A
BUXTON           N/A     68  65  92 NW2         N/A
DEVILS LAKE    FAIR      68  59  73 E7        30.23R
FARGO          FAIR      67  58  72 CALM      30.23R
WAHPETON ARPT  FAIR      64  55  72 N6        30.23R
$$

 *****  WEATHER ACROSS CENTRAL AND WESTERN NORTH DAKOTA  *****

CITY           SKY/WX    TMP DP  RH WIND       PRES   REMARKS
JAMESTOWN      FAIR      67  61  81 E5        30.24R
BISMARCK       MOCLDY    71  64  78 S6        30.24S
MINOT          FAIR      69  62  78 NE5       30.22S
MINOT AFB      FAIR      70  64  79 E7        30.22S
GARRISON         N/A     70  65  84 E8        30.21F
WILLISTON      CLOUDY    77  61  57 E12       30.20R
DICKINSON      CLOUDY    65  60  84 S6        30.22R
HETTINGER      CLOUDY    67  60  78 E9        30.25R
$$

 *****  OTHER OBSERVATIONS NORTHEAST NORTH DAKOTA  *****

CITY           SKY/WX    TMP DP  RH WIND       PRES   REMARKS
WALHALLA         N/A     63  63 100 NW5         N/A
LANGDON        FAIR      61  57  88 E6        30.26R
CAVALIER       FAIR      64  59  82 N5        30.24R
GRAFTON        FAIR      64  59  82 NW5       30.23R
CANDO          FAIR      64  61  88 E6        30.25R
FORT TOTTEN    NOT AVBL
ROLLA          FAIR      63  63 100 CALM      30.27R
RUGBY          FAIR      68  64  88 SE3       30.23R
 ***** THE ABOVE OBSERVATIONS ARE NON NWS ARE NOT QUALITY
        CONTROLLED AND MAY MIS-REPORT RAIN FOR SNOW...
$$

 *****  OTHER OBSERVATIONS SOUTHEAST NORTH DAKOTA *****

CITY           SKY/WX    TMP DP  RH WIND       PRES   REMARKS
COOPERSTOWN    NOT AVBL
VALLEY CITY    FAIR      66  64  94 E3        30.25R
OAKES          NOT AVBL
GWINNER        CLEAR     66  63  88 NE3       30.26R
BUFFALO        NOT AVBL
WYNDMERE       NOT AVBL
 ***** THE ABOVE OBSERVATIONS ARE NON NWS ARE NOT QUALITY
       CONTROLLED AND MAY MIS-REPORT RAIN FOR SNOW...
$$

  *****  WEATHER ACROSS NORTHERN MINNESOTA  *****

CITY           SKY/WX    TMP DP  RH WIND       PRES   REMARKS
FLAG ISLAND      N/A     68  55  64 NW12      30.18S HAZE
WARROAD        FAIR      64  57  77 NW5       30.21R
ROSEAU         FAIR      63  55  77 N7        30.21R
HALLOCK        FAIR      66  57  72 CALM      30.22R
THF RVR FALLS  FAIR      64  57  77 NW5       30.23R
HALSTAD          N/A     63  59  88 NW2         N/A
FOSSTON        FAIR      59  54  82 CALM      30.23R
BAUDETTE       FAIR      63  57  81 NW5       30.19S
WASKISH        FAIR      66  55  68 NW5       30.19S
CROOKSTON      FAIR      64  59  82 CALM      30.24R
$$
  *****  WEATHER ACROSS CENTRAL AND WEST MINNESOTA  *****

CITY           SKY/WX    TMP DP  RH WIND       PRES   REMARKS
BEMIDJI        FAIR      61  54  76 W5        30.21R
PARK RAPIDS    FAIR      61  56  83 NW6       30.21R
WADENA         FAIR      61  54  77 NW5       30.22R
DETROIT LAKES  FAIR      64  55  72 NW5       30.25R
MOORHEAD       FAIR      66  64  94 CALM      30.24R
FERGUS FALLS   FAIR      63  55  77 NW7       30.24R
ELBOW LAKE     FAIR      64  58  80 N7        30.23R
MORRIS MN      FAIR      63  57  82 NW7       30.22R
STAPLES        FAIR      63  54  72 CALM      30.21R
WHEATON        FAIR      63  57  82 N3        30.25R
$$
  *****  WEATHER ELSEWHERE ACROSS MINNESOTA  *****

CITY           SKY/WX    TMP DP  RH WIND       PRES   REMARKS
DULUTH         FAIR      66  54  65 N5        30.16R
INTRNTL FALLS  CLOUDY    64  56  75 NW6       30.16R
ELY            FAIR      59  55  88 CALM      30.15S
CLOQUET        FAIR      64  54  68 CALM      30.16S
BRAINERD       FAIR      63  54  72 CALM      30.20R
HIBBING        FAIR      58  54  86 NW3       30.17R
ALEXANDRIA     FAIR      67  58  72 N5        30.23R
SAINT CLOUD    FAIR      68  55  63 NW5       30.17R
MINNEAPOLIS    FAIR      75  53  46 N7        30.13R
$$

  *****  WEATHER ACROSS SOUTH DAKOTA  *****

CITY           SKY/WX    TMP DP  RH WIND       PRES   REMARKS
SIOUX FALLS    FAIR      68  59  73 N6        30.21R
BROOKINGS      NOT AVBL
WATERTOWN      FAIR      63  57  81 N6        30.25R
HURON          PTCLDY    70  60  70 NE6       30.22R
SISSETON         N/A     65  61  87 N3        30.23R
ABERDEEN       CLEAR     68  61  78 E6        30.23R
MITCHELL       CLEAR     72  62  71 E3        30.21R
PIERRE         CLOUDY    74  61  63 E3        30.23R
MOBRIDGE       CLOUDY    74  61  63 SE6       30.21S
RAPID CITY     CLOUDY    71  63  75 NE8       30.27R THUNDER
$$

  *****  SOME WEATHER IN NEARBY STATES *****

CITY           SKY/WX    TMP DP  RH WIND       PRES   REMARKS
GLASGOW MT     PTCLDY    75  51  43 E9        30.19R
GREAT FALLS MT MOCLDY    72  56  57 E12       30.15R
CHEYENNE WY    PTCLDY    76  54  46 S8        30.36S
SCOTTSBLUFF NE MOCLDY    82  58  43 SE16      30.19S
OMAHA NE       MOCLDY    76  68  76 N7        30.12R
DES MOINES IA  FAIR      80  66  62 N14       30.08R
DAVENPORT IA   FAIR      78  72  81 N7        30.01R
CHICAGO IL     CLOUDY    84  73  69 SW9       29.94F HX  90
EAU CLAIRE WI  FAIR      71  62  73 N6        30.09R
LA CROSSE WI   FAIR      73  63  70 N6        30.06R
$$

  *****  SOME NATIONAL WEATHER *****

CITY           SKY/WX    TMP DP  RH WIND       PRES   REMARKS
LA GUARDIA NY  FAIR      78  63  59 SW15      30.05S
RALEIGH NC     FAIR      75  71  87 CALM      30.11S
ATLANTA GA     MOCLDY    80  71  74 E3        30.12S
NEW ORLEANS LA MOCLDY    80  73  79 E5        30.03R
OKLAHOMA CITY  FAIR      84  74  71 SE7       30.09R HX  91
ALBUQUERQUE NM LGT RAIN  79  55  43 SE13      30.35F
SALT LAKE CITY PTCLDY    88  44  21 NW8       30.05F
LOS ANGELES CA CLEAR     71  59  65 W14       29.98F
BOISE ID       PTCLDY    86  44  23 N9        29.98F
SEATTLE WA     MOCLDY    69  56  62 CALM      30.03F
$$

*** WEATHER ACROSS MANITOBA...SASKATCHEWAN AND ONTARIO ***
                ***ONTARIO***

CITY           SKY/WX    TMP DP  RH WIND       PRES   REMARKS
GERALDTON      PTCLDY    54  54 100 NW2       30.10R
THUNDER BAY    MOCLDY    64  57  77 NE5       30.11R
SIOUX LOOKOUT  MOCLDY    59  54  82 N3        30.18R
TORONTO        MOCLDY    79  66  65 SW13      29.92F
BIG TROUT LK   CLOUDY    59  46  63 N5        30.14R
PICKLE LAKE    NOT AVBL
DRYDEN         CLEAR     59  54  82 N5        30.19R
KENORA         PTCLDY    63  54  72 N5        30.21
$$
                *** MANITOBA***

CITY           SKY/WX    TMP DP  RH WIND       PRES   REMARKS
BRANDON        PTCLDY    63  57  82 NE9       30.26R
DAUPHIN        CLEAR     61  52  72 NE7       30.27R
ISLAND LAKE    MOCLDY    59  52  77 NW3       30.21S
PILOT MOUND      N/A     61  57  88 NE6         N/A
THE PAS        CLEAR     61  54  77 CALM      30.23R
THOMPSON       PTCLDY    55  52  88 W2        30.20R
WINNIPEG       PTCLDY    63  55  77 NE9       30.24R
LYNN LAKE      CLEAR     66  46  48 W3        30.21S
CHURCHILL      MOCLDY    57  50  77 S7        30.06F
GILLAM         PTCLDY    61  50  67 SW5       30.13S
$$
                ***SASKATCHEWAN***

CITY           SKY/WX    TMP DP  RH WIND       PRES   REMARKS
ESTEVAN        CLOUDY    66  61  82 E3        30.25R
KINDERSLEY     CLOUDY    64  59  82 SE8       30.19S
LLOYDMINSTER   MOCLDY    66  57  72 E8        30.18F
PRINCE ALBERT  PTCLDY    64  57  77 SE3       30.23S
REGINA         PTCLDY    70  54  56 E8        30.25R
YORKTON        CLEAR     63  54  72 E3        30.26S



USA.gov is the U.S. government's official web portal to all federal, state and local government web resources and services.